Decorah, IA

11:56 AM CST on November 13, 2019 (GMT -0600)
Decorah Municipal

Weather History for KDEH - October, 2019

Change the Weather History Date:

Sunday, October 13, 2019

  Actual Average Record
Temperature  
Mean Temperature 37 °F -  
Max Temperature 41 °F 60 °F 86 °F (1975)
Min Temperature 33 °F 39 °F 22 °F (1988)
Degree Days  
Heating Degree Days 28    
Moisture  
Dew Point 32 °F    
Average Humidity 83    
Maximum Humidity 100    
Minimum Humidity 70    
Precipitation  
Precipitation 0.00 in - - ()
Sea Level Pressure  
Sea Level Pressure 29.81 in    
Wind  
Wind Speed 7 mph ()    
Max Wind Speed 12 mph    
Max Gust Speed 23 mph    
Visibility 10.0 miles    
Events      
Averages and records for this station are not official NWS values.
T = Trace of Precipitation, MM = Missing Value Source: Averaged Metar Reports

Daily Weather History Graph

Daily Weather History Graph

Search for Another Location

Airport or City:

Astronomy

Oct. 13, 2019 Rise Set
Actual Time 7:18 AM CDT 6:27 PM CDT
Civil Twilight 6:49 AM CDT 6:56 PM CDT
Nautical Twilight 6:16 AM CDT 7:29 PM CDT
Astronomical Twilight 5:43 AM CDT 8:02 PM CDT
Moon 6:51 PM CDT 6:50 AM CDT
Length of Visible Light 12h 06m
Length of Day
11h 09m
Full, 100% of the Moon is Illuminated
Oct 13
Full
Oct 13
Full
Oct 21
Last Quarter
Oct 27
New
Nov 4
First Quarter

Hourly Weather History & Observations

Time (CDT) Temp. Windchill Dew Point Humidity Pressure Visibility Wind Dir Wind Speed Gust Speed Precip Events Conditions
12:55 AM 33.8 °F 27.0 °F 32.0 °F 93% 29.72 in 10.0 mi WSW 8.1 mph 13.8 mph N/A   Overcast
1:15 AM 33.8 °F 27.0 °F 32.0 °F 93% 29.72 in 10.0 mi WSW 8.1 mph - N/A   Overcast
1:35 AM 33.8 °F 27.7 °F 32.0 °F 93% 29.73 in 10.0 mi WSW 6.9 mph - N/A   Overcast
1:55 AM 33.8 °F 28.6 °F 33.8 °F 100% 29.73 in 10.0 mi Variable 5.8 mph 11.5 mph N/A   Overcast
2:15 AM 33.8 °F 27.0 °F 32.0 °F 93% 29.73 in 10.0 mi WSW 8.1 mph - N/A   Overcast
2:35 AM 33.8 °F 28.6 °F 33.8 °F 100% 29.73 in 10.0 mi SW 5.8 mph 11.5 mph N/A   Overcast
2:55 AM 33.8 °F 27.7 °F 33.8 °F 100% 29.74 in 10.0 mi Variable 6.9 mph - N/A   Overcast
3:15 AM 33.8 °F 27.0 °F 33.8 °F 100% 29.73 in 10.0 mi WSW 8.1 mph - N/A   Overcast
3:35 AM 33.8 °F 27.7 °F 32.0 °F 93% 29.73 in 10.0 mi Variable 6.9 mph 15.0 mph N/A   Overcast
3:55 AM 33.8 °F 27.0 °F 32.0 °F 93% 29.73 in 10.0 mi WSW 8.1 mph 16.1 mph N/A   Overcast
4:15 AM 33.8 °F 27.7 °F 32.0 °F 93% 29.73 in 10.0 mi WSW 6.9 mph 13.8 mph N/A   Overcast
4:35 AM 33.8 °F 27.0 °F 32.0 °F 93% 29.73 in 10.0 mi WSW 8.1 mph - N/A   Overcast
4:55 AM 33.8 °F 27.7 °F 32.0 °F 93% 29.73 in 10.0 mi Variable 6.9 mph - N/A   Overcast
5:15 AM 33.8 °F 27.0 °F 32.0 °F 93% 29.74 in 10.0 mi WSW 8.1 mph - N/A   Overcast
5:35 AM 35.6 °F 29.2 °F 32.0 °F 87% 29.74 in 10.0 mi WSW 8.1 mph 16.1 mph N/A   Overcast
5:55 AM 35.6 °F 30.7 °F 32.0 °F 87% 29.74 in 10.0 mi Variable 5.8 mph 16.1 mph N/A   Overcast
6:15 AM 35.6 °F 29.9 °F 32.0 °F 87% 29.75 in 10.0 mi Variable 6.9 mph 16.1 mph N/A   Overcast
6:35 AM 35.6 °F 30.7 °F 32.0 °F 87% 29.75 in 10.0 mi Variable 5.8 mph 12.7 mph N/A   Overcast
6:55 AM 33.8 °F 26.4 °F 32.0 °F 93% 29.75 in 10.0 mi WSW 9.2 mph - N/A   Overcast
7:15 AM 33.8 °F 27.7 °F 32.0 °F 93% 29.75 in 10.0 mi Variable 6.9 mph 12.7 mph N/A   Overcast
7:35 AM 33.8 °F 28.6 °F 32.0 °F 93% 29.75 in 10.0 mi Variable 5.8 mph 12.7 mph N/A   Overcast
7:55 AM 33.8 °F 27.7 °F 32.0 °F 93% 29.76 in 10.0 mi Variable 6.9 mph 12.7 mph N/A   Overcast
8:15 AM 35.6 °F 28.0 °F 32.0 °F 87% 29.77 in 10.0 mi WSW 10.4 mph - N/A   Overcast
8:35 AM 35.6 °F 28.6 °F 32.0 °F 87% 29.77 in 10.0 mi West 9.2 mph - N/A   Unknown
8:55 AM 35.6 °F 28.6 °F 32.0 °F 87% 29.77 in 10.0 mi WSW 9.2 mph 18.4 mph N/A   Unknown
9:15 AM 35.6 °F 29.2 °F 32.0 °F 87% 29.77 in 10.0 mi West 8.1 mph 13.8 mph N/A   Unknown
9:35 AM 35.6 °F 29.2 °F 32.0 °F 87% 29.77 in 10.0 mi WSW 8.1 mph - N/A   Overcast
9:55 AM 35.6 °F 28.0 °F 32.0 °F 87% 29.77 in 10.0 mi West 10.4 mph 16.1 mph N/A   Overcast
10:15 AM 35.6 °F 29.2 °F 32.0 °F 87% 29.77 in 10.0 mi West 8.1 mph 17.3 mph N/A   Overcast
10:35 AM 37.4 °F 30.8 °F 32.0 °F 81% 29.78 in 10.0 mi West 9.2 mph 15.0 mph N/A   Unknown
10:55 AM 37.4 °F 32.8 °F 32.0 °F 81% 29.78 in 10.0 mi Variable 5.8 mph 17.3 mph N/A   Unknown
11:15 AM 37.4 °F 31.4 °F 32.0 °F 81% 29.78 in 10.0 mi West 8.1 mph 13.8 mph N/A   Unknown
11:35 AM 39.2 °F 33.0 °F 32.0 °F 75% 29.79 in 10.0 mi West 9.2 mph 23.0 mph N/A   Unknown
11:55 AM 39.2 °F 33.6 °F 32.0 °F 75% 29.80 in 10.0 mi West 8.1 mph 17.3 mph N/A   Unknown
12:15 PM 39.2 °F 33.6 °F 32.0 °F 75% 29.81 in 10.0 mi West 8.1 mph 18.4 mph N/A   Unknown
12:35 PM 39.2 °F 32.5 °F 32.0 °F 75% 29.81 in 10.0 mi West 10.4 mph 19.6 mph N/A   Unknown
12:55 PM 39.2 °F 32.5 °F 32.0 °F 75% 29.81 in 10.0 mi West 10.4 mph 20.7 mph N/A   Unknown
1:15 PM 39.2 °F 33.6 °F 32.0 °F 75% 29.80 in 10.0 mi WNW 8.1 mph 17.3 mph N/A   Unknown
1:55 PM 41.0 °F 37.1 °F 32.0 °F 70% 29.80 in 10.0 mi Variable 5.8 mph 15.0 mph N/A   Unknown
2:15 PM 41.0 °F 35.2 °F 32.0 °F 70% 29.80 in 10.0 mi West 9.2 mph 19.6 mph N/A   Unknown
2:35 PM 41.0 °F 34.3 °F 32.0 °F 70% 29.81 in 10.0 mi West 11.5 mph 18.4 mph N/A   Unknown
2:55 PM 41.0 °F 35.2 °F 32.0 °F 70% 29.81 in 10.0 mi West 9.2 mph 19.6 mph N/A   Unknown
3:15 PM 41.0 °F 34.7 °F 32.0 °F 70% 29.82 in 10.0 mi West 10.4 mph 17.3 mph N/A   Unknown
3:35 PM 41.0 °F 37.1 °F 32.0 °F 70% 29.83 in 10.0 mi Variable 5.8 mph 16.1 mph N/A   Unknown
3:55 PM 41.0 °F 35.8 °F 32.0 °F 70% 29.83 in 10.0 mi West 8.1 mph 18.4 mph N/A   Unknown
4:15 PM 41.0 °F 35.8 °F 32.0 °F 70% 29.83 in 10.0 mi West 8.1 mph 16.1 mph N/A   Unknown
4:35 PM 41.0 °F 35.2 °F 32.0 °F 70% 29.85 in 10.0 mi West 9.2 mph 15.0 mph N/A   Unknown
4:55 PM 41.0 °F 34.7 °F 32.0 °F 70% 29.85 in 10.0 mi West 10.4 mph - N/A   Unknown
5:15 PM 39.2 °F 34.2 °F 32.0 °F 75% 29.86 in 10.0 mi Variable 6.9 mph - N/A   Unknown
5:35 PM 39.2 °F 34.2 °F 32.0 °F 75% 29.87 in 10.0 mi West 6.9 mph - N/A   Overcast
5:55 PM 39.2 °F 35.9 °F 32.0 °F 75% 29.87 in 10.0 mi Variable 4.6 mph 11.5 mph N/A   Overcast
6:15 PM 39.2 °F 35.0 °F 32.0 °F 75% 29.87 in 10.0 mi Variable 5.8 mph - N/A   Overcast
6:35 PM 39.2 °F 35.0 °F 32.0 °F 75% 29.88 in 10.0 mi Variable 5.8 mph 12.7 mph N/A   Overcast
6:55 PM 39.2 °F 34.2 °F 32.0 °F 75% 29.89 in 10.0 mi West 6.9 mph - N/A   Overcast
7:15 PM 39.2 °F 34.2 °F 32.0 °F 75% 29.90 in 10.0 mi West 6.9 mph 13.8 mph N/A   Overcast
7:35 PM 39.2 °F 35.0 °F 32.0 °F 75% 29.90 in 10.0 mi Variable 5.8 mph - N/A   Overcast
7:55 PM 39.2 °F 35.9 °F 32.0 °F 75% 29.90 in 10.0 mi Variable 4.6 mph - N/A   Overcast
8:15 PM 39.2 °F 35.9 °F 32.0 °F 75% 29.91 in 10.0 mi Variable 4.6 mph 11.5 mph N/A   Overcast
8:35 PM 39.2 °F 35.9 °F 32.0 °F 75% 29.91 in 10.0 mi Variable 4.6 mph - N/A   Overcast
8:55 PM 39.2 °F 34.2 °F 32.0 °F 75% 29.91 in 10.0 mi Variable 6.9 mph - N/A   Overcast
9:15 PM 39.2 °F 37.0 °F 32.0 °F 75% 29.92 in 10.0 mi Variable 3.5 mph - N/A   Overcast
9:55 PM 37.4 °F - 32.0 °F 81% 29.93 in 10.0 mi Calm Calm - N/A   Scattered Clouds
10:15 PM 35.6 °F 31.7 °F 32.0 °F 87% 29.93 in 10.0 mi Variable 4.6 mph - N/A   Partly Cloudy
10:35 PM 35.6 °F 31.7 °F 32.0 °F 87% 29.94 in 10.0 mi Variable 4.6 mph - N/A   Clear
10:55 PM 35.6 °F - 32.0 °F 87% 29.94 in 10.0 mi Calm Calm - N/A   Partly Cloudy
11:15 PM 33.8 °F 29.6 °F 32.0 °F 93% 29.94 in 10.0 mi Variable 4.6 mph - N/A   Scattered Clouds
11:35 PM 35.6 °F 32.8 °F 32.0 °F 87% 29.95 in 10.0 mi Variable 3.5 mph - N/A   Scattered Clouds
11:55 PM 33.8 °F 30.8 °F 32.0 °F 93% 29.95 in 10.0 mi Variable 3.5 mph - N/A   Clear